E25HML-13 Weather Reports


time (UTC)temp
F
wind
direction
speed
knots
gust
knots
rain 1hr
in
rain 24hr
in
rain mn
in
humidity
%
barometer
mb
20260508044344 94 0.0 0.0 0.00 0.00 0.00 64 1006.5
20260508043844 94 0.0 0.0 0.00 0.00 0.00 64 1006.6
20260508043344 94 0.0 0.0 0.00 0.00 0.00 64 1006.8
20260508042844 93 0.0 0.0 0.00 0.00 0.00 65 1006.9
20260508042345 93 0.0 0.0 0.00 0.00 0.00 64 1006.9
20260508041845 94 0.0 0.0 0.00 0.00 0.00 64 1007.0
20260508041344 93 0.0 0.0 0.00 0.00 0.00 65 1007.1
20260508040845 93 0.0 0.0 0.00 0.00 0.00 64 1007.3
20260508040345 93 0.0 0.0 0.00 0.00 0.00 64 1007.3
20260508035844 94 0.0 0.0 0.00 0.00 0.00 65 1007.2
20260508035344 93 0.0 0.0 0.00 0.00 0.00 64 1007.3
20260508034844 93 0.0 0.0 0.00 0.00 0.00 64 1007.3
20260508034343 93 0.0 0.0 0.00 0.00 0.00 64 1007.3
20260508033844 93 0.0 0.0 0.00 0.00 0.00 64 1007.4
20260508033345 93 0.0 0.0 0.00 0.00 0.00 64 1007.6
20260508032844 92 0.0 0.0 0.00 0.00 0.00 65 1007.6
20260508032343 92 0.0 0.0 0.00 0.00 0.00 66 1007.7
20260508031843 92 0.0 0.0 0.00 0.00 0.00 66 1007.8
20260508031344 92 0.0 0.0 0.00 0.00 0.00 66 1007.8
20260508030844 92 0.0 0.0 0.00 0.00 0.00 65 1007.7
20260508030344 92 0.0 0.0 0.00 0.00 0.00 66 1007.8
20260508025844 92 0.0 0.0 0.00 0.00 0.00 66 1007.7
20260508025343 92 0.0 0.0 0.00 0.00 0.00 67 1007.8
20260508024843 91 0.0 0.0 0.00 0.00 0.00 67 1007.9
20260508024343 91 0.0 0.0 0.00 0.00 0.00 67 1007.9
20260508023843 91 0.0 0.0 0.00 0.00 0.00 67 1007.9
20260508023344 91 0.0 0.0 0.00 0.00 0.00 67 1008.0
20260508022844 92 0.0 0.0 0.00 0.00 0.00 66 1007.8
20260508022344 91 0.0 0.0 0.00 0.00 0.00 66 1007.7
20260508021844 91 0.0 0.0 0.00 0.00 0.00 66 1007.8
20260508021344 91 0.0 0.0 0.00 0.00 0.00 66 1007.7
20260508020844 91 0.0 0.0 0.00 0.00 0.00 66 1007.7
20260508020344 91 0.0 0.0 0.00 0.00 0.00 67 1007.8
20260508015844 91 0.0 0.0 0.00 0.00 0.00 67 1007.8
20260508015344 91 0.0 0.0 0.00 0.00 0.00 67 1007.7
20260508014844 91 0.0 0.0 0.00 0.00 0.00 67 1007.6
20260508014344 91 0.0 0.0 0.00 0.00 0.00 67 1007.7
20260508013843 91 0.0 0.0 0.00 0.00 0.00 66 1007.6
20260508013344 91 0.0 0.0 0.00 0.00 0.00 66 1007.6
20260508012844 90 0.0 0.0 0.00 0.00 0.00 68 1007.5
20260508012344 90 0.0 0.0 0.00 0.00 0.00 68 1007.6
20260508011844 91 0.0 0.0 0.00 0.00 0.00 67 1007.5
20260508011344 93 0.0 0.0 0.00 0.00 0.00 63 1007.4
20260508010844 92 0.0 0.0 0.00 0.00 0.00 63 1007.4
20260508010344 93 0.0 0.0 0.00 0.00 0.00 63 1007.2
20260508005844 92 0.0 0.0 0.00 0.00 0.00 65 1007.2
20260508005344 92 0.0 0.0 0.00 0.00 0.00 64 1007.1
20260508004844 92 0.0 0.0 0.00 0.00 0.00 64 1007.1
20260508004343 92 0.0 0.0 0.00 0.00 0.00 63 1007.0
20260508003843 93 0.0 0.0 0.00 0.00 0.00 62 1006.9
20260508003344 93 0.0 0.0 0.00 0.00 0.00 62 1006.7
20260508002844 93 0.0 0.0 0.00 0.00 0.00 61 1006.8
20260508002344 93 0.0 0.0 0.00 0.00 0.00 61 1006.8
20260508001843 93 0.0 0.0 0.00 0.00 0.00 61 1006.7
20260508001343 94 0.0 0.0 0.00 0.00 0.00 59 1006.7
20260508000843 94 0.0 0.0 0.00 0.00 0.00 59 1006.6
20260508000343 93 0.0 0.0 0.00 0.00 0.00 61 1006.7
20260507235843 93 0.0 0.0 0.00 0.00 0.00 62 1006.6
20260507235343 93 0.0 0.0 0.00 0.00 0.00 62 1006.5
20260507234843 93 0.0 0.0 0.00 0.00 0.00 62 1006.5
20260507234343 93 0.0 0.0 0.00 0.00 0.00 61 1006.4
20260507233843 93 0.0 0.0 0.00 0.00 0.00 61 1006.5
20260507233344 93 0.0 0.0 0.00 0.00 0.00 61 1006.4
20260507232844 94 0.0 0.0 0.00 0.00 0.00 60 1006.4
20260507232343 94 0.0 0.0 0.00 0.00 0.00 60 1006.3
20260507231843 94 0.0 0.0 0.00 0.00 0.00 60 1006.3
20260507231344 94 0.0 0.0 0.00 0.00 0.00 59 1006.2
20260507230843 94 0.0 0.0 0.00 0.00 0.00 59 1006.2
20260507230343 94 0.0 0.0 0.00 0.00 0.00 59 1006.2
20260507225844 95 0.0 0.0 0.00 0.00 0.00 58 1006.2
20260507225343 95 0.0 0.0 0.00 0.00 0.00 59 1006.1
20260507224843 95 0.0 0.0 0.00 0.00 0.00 58 1006.0
20260507224343 95 0.0 0.0 0.00 0.00 0.00 58 1006.0
20260507223843 95 0.0 0.0 0.00 0.00 0.00 58 1006.0
20260507223343 95 0.0 0.0 0.00 0.00 0.00 58 1005.9
20260507222843 95 0.0 0.0 0.00 0.00 0.00 58 1005.8
20260507222343 96 0.0 0.0 0.00 0.00 0.00 57 1005.7
20260507221844 95 0.0 0.0 0.00 0.00 0.00 58 1005.6
20260507221343 95 0.0 0.0 0.00 0.00 0.00 58 1005.5
20260507220843 96 0.0 0.0 0.00 0.00 0.00 58 1005.5
20260507220343 95 0.0 0.0 0.00 0.00 0.00 58 1005.4
20260507215843 96 0.0 0.0 0.00 0.00 0.00 58 1005.3
20260507215343 95 0.0 0.0 0.00 0.00 0.00 58 1005.3
20260507214843 96 0.0 0.0 0.00 0.00 0.00 57 1005.2
20260507214343 96 0.0 0.0 0.00 0.00 0.00 57 1005.2
20260507213843 96 0.0 0.0 0.00 0.00 0.00 57 1005.2
20260507213343 96 0.0 0.0 0.00 0.00 0.00 57 1005.0
20260507212843 96 0.0 0.0 0.00 0.00 0.00 57 1005.1
20260507212342 96 0.0 0.0 0.00 0.00 0.00 57 1005.1
20260507211843 96 0.0 0.0 0.00 0.00 0.00 57 1005.1
20260507211343 96 0.0 0.0 0.00 0.00 0.00 57 1005.1
20260507210843 96 0.0 0.0 0.00 0.00 0.00 57 1005.1
20260507210344 96 0.0 0.0 0.00 0.00 0.00 57 1005.0
20260507205842 97 0.0 0.0 0.00 0.00 0.00 56 1005.0
20260507205343 97 0.0 0.0 0.00 0.00 0.00 56 1004.9
20260507204843 97 0.0 0.0 0.00 0.00 0.00 56 1004.8
20260507204343 96 0.0 0.0 0.00 0.00 0.00 56 1004.8
20260507203843 96 0.0 0.0 0.00 0.00 0.00 57 1004.7
20260507203343 96 0.0 0.0 0.00 0.00 0.00 57 1004.7
20260507202843 96 0.0 0.0 0.00 0.00 0.00 57 1004.7
20260507202343 97 0.0 0.0 0.00 0.00 0.00 56 1004.7
20260507201843 96 0.0 0.0 0.00 0.00 0.00 57 1004.8
20260507201343 97 0.0 0.0 0.00 0.00 0.00 56 1004.9
20260507200842 96 0.0 0.0 0.00 0.00 0.00 57 1005.0
20260507200344 97 0.0 0.0 0.00 0.00 0.00 56 1004.9
20260507195842 97 0.0 0.0 0.00 0.00 0.00 56 1004.9
20260507195343 97 0.0 0.0 0.00 0.00 0.00 56 1004.8
20260507194843 97 0.0 0.0 0.00 0.00 0.00 56 1004.8
20260507194351 97 0.0 0.0 0.00 0.00 0.00 56 1004.8
20260507193843 97 0.0 0.0 0.00 0.00 0.00 56 1004.7
20260507193343 98 0.0 0.0 0.00 0.00 0.00 55 1004.7
20260507192843 98 0.0 0.0 0.00 0.00 0.00 55 1004.7
20260507192343 97 0.0 0.0 0.00 0.00 0.00 56 1004.8
20260507191843 97 0.0 0.0 0.00 0.00 0.00 56 1004.8
20260507191343 97 0.0 0.0 0.00 0.00 0.00 55 1004.8
20260507190843 98 0.0 0.0 0.00 0.00 0.00 55 1004.9
20260507190343 98 0.0 0.0 0.00 0.00 0.00 55 1005.1
20260507185842 98 0.0 0.0 0.00 0.00 0.00 55 1005.1
20260507185343 98 0.0 0.0 0.00 0.00 0.00 55 1005.1
20260507184842 98 0.0 0.0 0.00 0.00 0.00 55 1005.2
20260507184342 98 0.0 0.0 0.00 0.00 0.00 55 1005.3
20260507183842 98 0.0 0.0 0.00 0.00 0.00 55 1005.3
20260507183343 98 0.0 0.0 0.00 0.00 0.00 55 1005.5
20260507182843 98 0.0 0.0 0.00 0.00 0.00 55 1005.5
20260507182343 98 0.0 0.0 0.00 0.00 0.00 56 1005.7
20260507181843 98 0.0 0.0 0.00 0.00 0.00 56 1005.8
20260507181343 98 0.0 0.0 0.00 0.00 0.00 56 1005.7
20260507180843 98 0.0 0.0 0.00 0.00 0.00 55 1005.9
20260507180343 98 0.0 0.0 0.00 0.00 0.00 55 1005.8
20260507175843 98 0.0 0.0 0.00 0.00 0.00 55 1005.9
20260507175343 98 0.0 0.0 0.00 0.00 0.00 56 1005.9
20260507174843 98 0.0 0.0 0.00 0.00 0.00 56 1006.0
20260507174343 98 0.0 0.0 0.00 0.00 0.00 55 1006.1
20260507173843 98 0.0 0.0 0.00 0.00 0.00 56 1006.2
20260507173343 98 0.0 0.0 0.00 0.00 0.00 56 1006.3
20260507172843 98 0.0 0.0 0.00 0.00 0.00 56 1006.2
20260507172343 98 0.0 0.0 0.00 0.00 0.00 56 1006.1
20260507171843 97 0.0 0.0 0.00 0.00 0.00 57 1006.2
20260507171344 97 0.0 0.0 0.00 0.00 0.00 58 1006.2
20260507170842 97 0.0 0.0 0.00 0.00 0.00 58 1006.4
20260507170342 97 0.0 0.0 0.00 0.00 0.00 58 1006.4
20260507165843 96 0.0 0.0 0.00 0.00 0.00 59 1006.5
20260507165343 94 0.0 0.0 0.00 0.00 0.00 63 1006.6
20260507164843 94 0.0 0.0 0.00 0.00 0.00 64 1006.5
20260507164343 93 0.0 0.0 0.00 0.00 0.00 65 1006.5
20260507163842 93 0.0 0.0 0.00 0.00 0.00 65 1006.5
20260507163342 93 0.0 0.0 0.00 0.00 0.00 65 1006.7
20260507162843 93 0.0 0.0 0.00 0.00 0.00 66 1006.7
20260507162342 93 0.0 0.0 0.00 0.00 0.00 66 1006.6
20260507161842 93 0.0 0.0 0.00 0.00 0.00 65 1006.6
20260507161342 93 0.0 0.0 0.00 0.00 0.00 65 1006.5
20260507160842 93 0.0 0.0 0.00 0.00 0.00 64 1006.4
20260507160342 93 0.0 0.0 0.00 0.00 0.00 65 1006.4
20260507155843 93 0.0 0.0 0.00 0.00 0.00 64 1006.3
20260507155342 93 0.0 0.0 0.00 0.00 0.00 64 1006.5
20260507154842 93 0.0 0.0 0.00 0.00 0.00 65 1006.4
20260507154342 93 0.0 0.0 0.00 0.00 0.00 64 1006.4
20260507153843 93 0.0 0.0 0.00 0.00 0.00 64 1006.3
20260507153550 93 0.0 0.0 0.00 0.00 0.00 63 1006.4
20260507153342 93 0.0 0.0 0.00 0.00 0.00 63 1006.4
20260507153147 93 0.0 0.0 0.00 0.00 0.00 63 1006.4
20260507152842 93 0.0 0.0 0.00 0.00 0.00 63 1006.4
20260507152555 93 0.0 0.0 0.00 0.00 0.00 63 1006.3
20260507152342 93 0.0 0.0 0.00 0.00 0.00 63 1006.3
20260507151842 93 0.0 0.0 0.00 0.00 0.00 63 1006.3
20260507151342 93 0.0 0.0 0.00 0.00 0.00 63 1006.3
20260507150842 93 0.0 0.0 0.00 0.00 0.00 63 1006.3
20260507150342 93 0.0 0.0 0.00 0.00 0.00 62 1006.2
20260507145842 93 0.0 0.0 0.00 0.00 0.00 63 1006.3
20260507145342 93 0.0 0.0 0.00 0.00 0.00 62 1006.3
20260507144842 94 0.0 0.0 0.00 0.00 0.00 63 1006.2
20260507144342 94 0.0 0.0 0.00 0.00 0.00 63 1006.1
20260507143842 94 0.0 0.0 0.00 0.00 0.00 63 1006.0
20260507143342 94 0.0 0.0 0.00 0.00 0.00 63 1005.8
20260507142843 94 0.0 0.0 0.00 0.00 0.00 62 1005.7
20260507142341 94 0.0 0.0 0.00 0.00 0.00 63 1005.7
20260507141842 94 0.0 0.0 0.00 0.00 0.00 63 1005.5
20260507141342 94 0.0 0.0 0.00 0.00 0.00 63 1005.6
20260507140842 94 0.0 0.0 0.00 0.00 0.00 63 1005.5
20260507140342 94 0.0 0.0 0.00 0.00 0.00 62 1005.2
20260507135842 94 0.0 0.0 0.00 0.00 0.00 62 1005.3
20260507135342 94 0.0 0.0 0.00 0.00 0.00 63 1005.2
20260507134842 94 0.0 0.0 0.00 0.00 0.00 63 1005.1
20260507134342 94 0.0 0.0 0.00 0.00 0.00 63 1005.0
20260507133842 94 0.0 0.0 0.00 0.00 0.00 63 1004.9
20260507133342 94 0.0 0.0 0.00 0.00 0.00 64 1004.9
20260507132842 94 0.0 0.0 0.00 0.00 0.00 63 1004.8
20260507132342 94 0.0 0.0 0.00 0.00 0.00 63 1004.6
20260507131842 94 0.0 0.0 0.00 0.00 0.00 63 1004.5
20260507131343 94 0.0 0.0 0.00 0.00 0.00 63 1004.7
20260507130843 94 0.0 0.0 0.00 0.00 0.00 63 1004.6
20260507130342 94 0.0 0.0 0.00 0.00 0.00 63 1004.6
20260507125842 94 0.0 0.0 0.00 0.00 0.00 63 1004.5
20260507125342 94 0.0 0.0 0.00 0.00 0.00 63 1004.4
20260507124842 94 0.0 0.0 0.00 0.00 0.00 62 1004.4
20260507124342 94 0.0 0.0 0.00 0.00 0.00 63 1004.1
20260507123842 94 0.0 0.0 0.00 0.00 0.00 62 1004.0
20260507123343 94 0.0 0.0 0.00 0.00 0.00 62 1004.0
20260507122842 95 0.0 0.0 0.00 0.00 0.00 61 1003.7
20260507122342 94 0.0 0.0 0.00 0.00 0.00 61 1003.4
20260507121843 94 0.0 0.0 0.00 0.00 0.00 62 1003.3
20260507121342 94 0.0 0.0 0.00 0.00 0.00 63 1003.3
20260507120842 94 0.0 0.0 0.00 0.00 0.00 63 1003.1
20260507120341 94 0.0 0.0 0.00 0.00 0.00 64 1003.1
20260507115843 94 0.0 0.0 0.00 0.00 0.00 63 1003.1
20260507115342 94 0.0 0.0 0.00 0.00 0.00 63 1003.0
20260507114843 94 0.0 0.0 0.00 0.00 0.00 63 1002.9
20260507114342 95 0.0 0.0 0.00 0.00 0.00 63 1002.8
20260507113842 95 0.0 0.0 0.00 0.00 0.00 63 1002.8
20260507113342 95 0.0 0.0 0.00 0.00 0.00 63 1002.8
20260507112841 95 0.0 0.0 0.00 0.00 0.00 62 1002.7
20260507112341 95 0.0 0.0 0.00 0.00 0.00 62 1002.8
20260507111842 95 0.0 0.0 0.00 0.00 0.00 63 1002.7
20260507111342 95 0.0 0.0 0.00 0.00 0.00 62 1002.6
20260507110842 95 0.0 0.0 0.00 0.00 0.00 62 1002.6
20260507110342 95 0.0 0.0 0.00 0.00 0.00 63 1002.5
20260507105842 95 0.0 0.0 0.00 0.00 0.00 62 1002.2
20260507105341 95 0.0 0.0 0.00 0.00 0.00 62 1002.3
20260507104841 95 0.0 0.0 0.00 0.00 0.00 62 1002.1
20260507104342 95 0.0 0.0 0.00 0.00 0.00 62 1002.0
20260507103842 95 0.0 0.0 0.00 0.00 0.00 62 1001.9
20260507103342 95 0.0 0.0 0.00 0.00 0.00 61 1001.9
20260507102842 95 0.0 0.0 0.00 0.00 0.00 62 1002.0
20260507102342 95 0.0 0.0 0.00 0.00 0.00 62 1002.0
20260507101841 94 0.0 0.0 0.00 0.00 0.00 63 1001.9
20260507101342 95 0.0 0.0 0.00 0.00 0.00 63 1002.0
20260507100842 95 0.0 0.0 0.00 0.00 0.00 63 1001.9
20260507100341 95 0.0 0.0 0.00 0.00 0.00 63 1001.9
20260507095844 95 0.0 0.0 0.00 0.00 0.00 64 1001.9
20260507095342 94 0.0 0.0 0.00 0.00 0.00 65 1001.8
20260507094841 94 0.0 0.0 0.00 0.00 0.00 64 1001.9
20260507094342 94 0.0 0.0 0.00 0.00 0.00 64 1001.8
20260507093842 95 0.0 0.0 0.00 0.00 0.00 59 1001.8
20260507093341 94 0.0 0.0 0.00 0.00 0.00 57 1001.7
20260507092842 95 0.0 0.0 0.00 0.00 0.00 58 1001.6
20260507092341 95 0.0 0.0 0.00 0.00 0.00 58 1001.7
20260507091841 96 0.0 0.0 0.00 0.00 0.00 57 1001.6
20260507091342 98 0.0 0.0 0.00 0.00 0.00 53 1001.7
20260507090842 98 0.0 0.0 0.00 0.00 0.00 55 1001.3
20260507090341 98 0.0 0.0 0.00 0.00 0.00 55 1001.3
20260507085841 98 0.0 0.0 0.00 0.00 0.00 54 1001.5
20260507085342 98 0.0 0.0 0.00 0.00 0.00 53 1001.4
20260507084842 98 0.0 0.0 0.00 0.00 0.00 55 1001.0
20260507084342 98 0.0 0.0 0.00 0.00 0.00 55 1000.6
20260507083842 98 0.0 0.0 0.00 0.00 0.00 56 1000.5
20260507083341 98 0.0 0.0 0.00 0.00 0.00 55 1000.5
20260507082841 97 0.0 0.0 0.00 0.00 0.00 55 1000.8
20260507082340 97 0.0 0.0 0.00 0.00 0.00 56 1000.9
20260507081841 97 0.0 0.0 0.00 0.00 0.00 56 1001.1
20260507081341 97 0.0 0.0 0.00 0.00 0.00 56 1001.2
20260507080842 98 0.0 0.0 0.00 0.00 0.00 55 1001.3
20260507080341 97 0.0 0.0 0.00 0.00 0.00 55 1001.5
20260507075841 97 0.0 0.0 0.00 0.00 0.00 56 1001.5
20260507075341 97 0.0 0.0 0.00 0.00 0.00 57 1001.4
20260507074842 97 0.0 0.0 0.00 0.00 0.00 56 1001.6
20260507074341 97 0.0 0.0 0.00 0.00 0.00 56 1001.8
20260507073841 97 0.0 0.0 0.00 0.00 0.00 55 1001.8
20260507073341 97 0.0 0.0 0.00 0.00 0.00 55 1001.8
20260507072841 96 0.0 0.0 0.00 0.00 0.00 57 1002.0
20260507072341 97 0.0 0.0 0.00 0.00 0.00 57 1002.1
20260507071842 96 0.0 0.0 0.00 0.00 0.00 57 1002.3
20260507071342 96 0.0 0.0 0.00 0.00 0.00 57 1002.4
20260507070841 97 0.0 0.0 0.00 0.00 0.00 57 1002.5
20260507070342 96 0.0 0.0 0.00 0.00 0.00 58 1002.5
20260507065841 96 0.0 0.0 0.00 0.00 0.00 57 1002.7
20260507065341 96 0.0 0.0 0.00 0.00 0.00 57 1002.8
20260507064841 96 0.0 0.0 0.00 0.00 0.00 58 1002.9
20260507064342 96 0.0 0.0 0.00 0.00 0.00 57 1003.1
20260507063841 96 0.0 0.0 0.00 0.00 0.00 55 1003.0
20260507063341 96 0.0 0.0 0.00 0.00 0.00 56 1003.0
20260507062841 96 0.0 0.0 0.00 0.00 0.00 57 1003.0
20260507062341 96 0.0 0.0 0.00 0.00 0.00 57 1003.2
20260507061841 95 0.0 0.0 0.00 0.00 0.00 57 1003.3
20260507061340 96 0.0 0.0 0.00 0.00 0.00 57 1003.5
20260507060840 96 0.0 0.0 0.00 0.00 0.00 56 1003.6
20260507060340 96 0.0 0.0 0.00 0.00 0.00 56 1003.8
20260507055841 96 0.0 0.0 0.00 0.00 0.00 57 1003.8
20260507055341 96 0.0 0.0 0.00 0.00 0.00 58 1004.0
20260507054841 95 0.0 0.0 0.00 0.00 0.00 59 1004.2
20260507054341 95 0.0 0.0 0.00 0.00 0.00 59 1004.3
20260507053841 95 0.0 0.0 0.00 0.00 0.00 60 1004.4
20260507053341 95 0.0 0.0 0.00 0.00 0.00 60 1004.5
20260507052842 95 0.0 0.0 0.00 0.00 0.00 60 1004.7
20260507052342 95 0.0 0.0 0.00 0.00 0.00 60 1004.9
20260507051840 95 0.0 0.0 0.00 0.00 0.00 60 1005.1
20260507051341 95 0.0 0.0 0.00 0.00 0.00 60 1005.2
20260507050840 95 0.0 0.0 0.00 0.00 0.00 60 1005.2
20260507050340 95 0.0 0.0 0.00 0.00 0.00 61 1005.2
20260507045841 94 0.0 0.0 0.00 0.00 0.00 62 1005.4
20260507045341 94 0.0 0.0 0.00 0.00 0.00 62 1005.5
20260507044840 94 0.0 0.0 0.00 0.00 0.00 62 1005.5